Current weather by "City, St" or "zip code"  
 

Current Conditions: Gulfport - Gulfport-Biloxi International Airport, MS

A Few Clouds


78.0 F

Last Updated on Oct 23 2020, 8:53 pm CDT
Humidity: 87%
Wind Speed: E 8.1 mph
Barometer 29.97 in
Dewpoint: 73.9 F
Visibility: 10.00 mi
Precip: --
Heat Index: NA
Wind Chill: NA
Current conditions at:

Gulfport - Gulfport-Biloxi International Airport, MS (KGPT)

Lat: 30.41194 Lon: 89.08083

Local Radar Image active severe weather and emergency alerts image image weather storm and storm spotter reports image weather observation monitoring service image
Local
Radar
Active
Alerts
Storm Reports Obs
Monitoring

Sign-up For Email & Text Message Weather Alert Notification Services



Advertise Here

Observation History for Gulfport - Gulfport-Biloxi International Airport, MS


Time Wind
(mph)
Vis
(mi)
Weather Precip (in) Temperature (F) Relative
Humidity
Wind
Chill
(F)
Heat
Index
(F)
Pressure
Air Dwpt altimeter
(in)
sea level
(mb)
Rmks
8:53 pm CDT E 8.1 10.00 A Few Clouds -- 78.0 73.9 87% NA NA 29.97 1014.7
7:53 pm CDT SE 12.7 10.00 Partly Cloudy -- 78.0 73.0 85% NA NA 29.96 1014.6
6:53 pm CDT SE 11.5 10.00 A Few Clouds Trace 78.0 73.0 85% NA NA 29.96 1014.5
5:53 pm CDT SE 10.4 10.00 Partly Cloudy -- 78.0 73.0 85% NA NA 29.94 1013.8
4:53 pm CDT SE 6.9 10.00 Fair -- 79.0 73.0 82% NA NA 29.95 1014.1
3:53 pm CDT E 11.5 10.00 Partly Cloudy -- 80.0 72.0 76% NA 84 29.95 1014.0
2:53 pm CDT SE 18.4 10.00 A Few Clouds -- 83.0 73.0 72% NA 89 29.94 1013.8
1:53 pm CDT SE 17.3 10.00 Partly Cloudy -- 84.0 73.0 70% NA 90 29.96 1014.5
12:53 pm CDT SE 12.7 10.00 Fair -- 84.0 73.0 70% NA 90 29.99 1015.3
11:53 am CDT SE 15.0 10.00 Mostly Cloudy -- 84.0 73.0 70% NA 90 30.01 1016.3
10:53 am CDT E 15.0 10.00 Mostly Cloudy -- 82.0 73.0 74% NA 87 30.02 1016.4
9:53 am CDT E 6.9 10.00 Mostly Cloudy -- 79.0 73.0 82% NA NA 30.01 1016.3
8:53 am CDT E 8.1 10.00 Mostly Cloudy -- 74.0 70.0 88% NA NA 30.00 1015.8
7:53 am CDT E 3.5 10.00 Fair -- 72.0 69.1 91% NA NA 29.99 1015.4
6:53 am CDT NE 3.5 10.00 Fair -- 71.0 66.9 87% NA NA 29.98 1015.3
5:53 am CDT 3.5 10.00 Fair -- 71.0 66.9 87% NA NA 29.98 1015.2
4:53 am CDT NE 3.5 10.00 Fair -- 70.0 66.9 90% NA NA 29.97 1014.8
3:53 am CDT N 0.0 10.00 Fair -- 70.0 66.9 90% NA NA 29.97 1014.7
2:53 am CDT N 0.0 10.00 Fair -- 70.0 66.9 90% NA NA 29.97 1014.9
1:53 am CDT N 3.5 10.00 A Few Clouds -- 69.0 66.9 93% NA NA 29.98 1015.1
12:53 am CDT N 0.0 10.00 Fair -- 70.0 68.0 93% NA NA 29.99 1015.4
11:53 pm CDT N 0.0 10.00 Fair -- 71.0 68.0 90% NA NA 30.00 1015.9
10:53 pm CDT N 0.0 10.00 Fair -- 71.0 68.0 90% NA NA 30.01 1016.0
9:53 pm CDT E 3.5 10.00 Fair -- 74.0 69.1 85% NA NA 30.01 1016.1

Regional Weather Observation


Bay St. Louis, Stennis International Airport, MS (KHSA)

Mostly Cloudy
75.0 F

Bogalusa, George R Carr Memorial Air Field, LA (KBXA)

Mostly Cloudy
72.0 F

Keesler Air Force Base / Biloxi, MS (KBIX)

A Few Clouds
78.0 F

Moss Point - Trent Lott International Airport, MS (KPQL)

Fair
76.0 F

Hattiesburg, Bobby L Chain Municipal Airport, MS (KHBG)

Light Rain
69.0 F

Mobile, Mobile Regional Airport, AL (KMOB)

Partly Cloudy
73.0 F